KC7O Weather Reports


Display with metric or nautical units.
time (UTC)temp
F
wind
direction
speed
MPH
gust
MPH
rain 1hr
in
rain 24hr
in
rain mn
in
humidity
%
barometer
mb
20260505234420 63 247 0.0 4.0 0.00 0.00 0.00 59 1012.3
20260505233903 63 262 1.0 4.0 0.00 0.00 0.00 59 1012.3
20260505232850 62 271 1.0 3.0 0.00 0.00 0.00 60 1012.3
20260505232356 62 266 0.0 0.0 0.00 0.00 0.00 60 1012.4
20260505231853 62 288 0.0 0.0 0.00 0.00 0.00 60 1012.4
20260505231359 62 258 0.0 0.0 0.00 0.00 0.00 58 1012.4
20260505230906 62 246 0.0 0.0 0.00 0.00 0.00 59 1012.4
20260505230354 62 245 0.0 0.0 0.00 0.00 0.00 59 1012.4
20260505225858 62 260 0.0 0.0 0.00 0.00 0.00 59 1012.5
20260505225404 62 274 0.0 0.0 0.00 0.00 0.00 60 1012.5
20260505224850 62 245 0.0 0.0 0.00 0.00 0.00 59 1012.5
20260505224355 62 275 0.0 1.0 0.00 0.00 0.00 59 1012.5
20260505223901 62 211 0.0 1.0 0.00 0.00 0.00 59 1012.5
20260505223406 62 242 0.0 2.0 0.00 0.00 0.00 59 1012.6
20260505222852 62 181 0.0 2.0 0.00 0.00 0.00 58 1012.7
20260505222417 62 141 1.0 2.0 0.00 0.00 0.00 58 1012.7
20260505221903 62 150 0.0 2.0 0.00 0.00 0.00 59 1012.7
20260505221428 62 256 0.0 2.0 0.00 0.00 0.00 59 1012.8
20260505220851 62 201 1.0 2.0 0.00 0.00 0.00 58 1012.8
20260505220414 62 234 0.0 2.0 0.00 0.00 0.00 59 1012.9
20260505215900 61 231 1.0 3.0 0.00 0.00 0.00 60 1012.9
20260505215410 61 256 0.0 3.0 0.00 0.00 0.00 61 1012.9
20260505214855 61 289 0.0 2.0 0.00 0.00 0.00 60 1012.9
20260505214400 62 281 0.0 2.0 0.00 0.00 0.00 60 1012.9
20260505213905 62 248 1.0 3.0 0.00 0.00 0.00 59 1012.9
20260505213351 62 174 0.0 2.0 0.00 0.00 0.00 60 1012.9
20260505212916 62 173 0.0 2.0 0.00 0.00 0.00 61 1012.9
20260505212420 62 169 1.0 2.0 0.00 0.00 0.00 60 1012.9
20260505211904 62 250 0.0 4.0 0.00 0.00 0.00 60 1012.9
20260505211350 62 161 1.0 4.0 0.00 0.00 0.00 61 1012.9
20260505210916 62 227 0.0 3.0 0.00 0.00 0.00 61 1012.9
20260505210357 62 153 0.0 2.0 0.00 0.00 0.00 62 1012.9
20260505205905 62 264 1.0 2.0 0.00 0.00 0.00 62 1012.9
20260505205349 62 181 0.0 2.0 0.00 0.00 0.00 63 1012.8
20260505204855 62 257 1.0 2.0 0.00 0.00 0.00 63 1012.8
20260505204403 62 224 1.0 2.0 0.00 0.00 0.00 63 1012.8
20260505203848 62 233 0.0 3.0 0.00 0.00 0.00 62 1012.7
20260505203352 62 261 0.0 4.0 0.00 0.00 0.00 63 1012.7
20260505202856 62 271 1.0 4.0 0.00 0.00 0.00 63 1012.7
20260505202403 63 240 1.0 3.0 0.00 0.00 0.00 62 1012.6
20260505201848 63 274 1.0 7.0 0.00 0.00 0.00 62 1012.6
20260505201353 64 275 3.0 7.0 0.00 0.00 0.00 60 1012.5
20260505200856 65 274 2.0 8.0 0.00 0.00 0.00 59 1012.5
20260505200422 65 159 1.0 8.0 0.00 0.00 0.00 59 1012.5
20260505195905 66 210 2.0 6.0 0.00 0.00 0.00 58 1012.5
20260505195348 66 164 2.0 6.0 0.00 0.00 0.00 58 1012.6
20260505194857 67 268 2.0 6.0 0.00 0.00 0.00 57 1012.7
20260505194402 67 150 0.0 5.0 0.00 0.00 0.00 60 1012.6
20260505193926 66 136 2.0 5.0 0.00 0.00 0.00 59 1012.7
20260505193347 65 253 2.0 5.0 0.00 0.00 0.00 60 1012.8
20260505192855 64 293 2.0 4.0 0.00 0.00 0.00 63 1012.8
20260505192359 64 251 3.0 5.0 0.00 0.00 0.00 61 1012.9
20260505191903 65 206 3.0 5.0 0.00 0.00 0.00 61 1012.9
20260505191349 65 135 2.0 7.0 0.00 0.00 0.00 58 1012.9
20260505190855 65 231 3.0 7.0 0.00 0.00 0.00 58 1012.9
20260505190358 65 195 2.0 5.0 0.00 0.00 0.00 57 1012.8
20260505185904 65 271 2.0 4.0 0.00 0.00 0.00 56 1012.8
20260505185353 66 169 1.0 6.0 0.00 0.00 0.00 55 1012.8
20260505184411 65 279 1.0 3.0 0.00 0.00 0.00 56 1012.8
20260505183854 65 267 1.0 5.0 0.00 0.00 0.00 55 1012.8
20260505183420 65 281 2.0 5.0 0.00 0.00 0.00 56 1012.8
20260505182847 64 231 1.0 3.0 0.00 0.00 0.00 58 1012.8
20260505182351 64 157 2.0 3.0 0.00 0.00 0.00 58 1012.8
20260505181855 64 205 1.0 4.0 0.00 0.00 0.00 59 1012.8
20260505181402 64 308 1.0 3.0 0.00 0.00 0.00 59 1012.8
20260505180906 64 217 1.0 2.0 0.00 0.00 0.00 62 1012.8
20260505180351 62 142 0.0 3.0 0.00 0.00 0.00 64 1012.8
20260505175855 62 224 0.0 3.0 0.00 0.00 0.00 65 1012.8
20260505175358 61 195 1.0 2.0 0.00 0.00 0.00 66 1012.8
20260505174902 61 154 0.0 3.0 0.00 0.00 0.00 68 1012.8
20260505174348 61 134 1.0 3.0 0.00 0.00 0.00 70 1012.7
20260505173853 61 171 1.0 3.0 0.00 0.00 0.00 70 1012.7
20260505173418 61 141 0.0 5.0 0.00 0.00 0.00 70 1012.6
20260505172847 61 148 1.0 5.0 0.00 0.00 0.00 70 1012.6
20260505172353 61 180 2.0 4.0 0.00 0.00 0.00 69 1012.6
20260505171859 61 173 0.0 3.0 0.00 0.00 0.00 70 1012.5
20260505171425 61 136 1.0 4.0 0.00 0.00 0.00 69 1012.5
20260505170927 62 158 1.0 4.0 0.00 0.00 0.00 69 1012.5
20260505170351 61 128 1.0 4.0 0.00 0.00 0.00 70 1012.4
20260505165855 61 204 1.0 6.0 0.00 0.00 0.00 69 1012.5
20260505165421 61 224 1.0 6.0 0.00 0.00 0.00 68 1012.4
20260505164905 61 140 1.0 5.0 0.00 0.00 0.00 68 1012.3
20260505164350 62 131 1.0 5.0 0.00 0.00 0.00 68 1012.3
20260505163352 62 171 1.0 4.0 0.00 0.00 0.00 67 1012.3
20260505162900 62 274 2.0 4.0 0.00 0.00 0.00 65 1012.3
20260505162351 62 263 2.0 4.0 0.00 0.00 0.00 67 1012.2
20260505161921 62 152 1.0 4.0 0.00 0.00 0.00 69 1012.3
20260505161405 62 147 1.0 3.0 0.00 0.00 0.00 70 1012.1
20260505160851 61 291 1.0 3.0 0.00 0.00 0.00 72 1012.1
20260505160358 61 146 0.0 6.0 0.00 0.00 0.00 71 1012.1
20260505153359 60 320 0.0 2.0 0.00 0.00 0.00 75 1012.1
20260505152850 60 247 0.0 2.0 0.00 0.00 0.00 77 1012.1
20260505152357 60 289 0.0 1.0 0.00 0.00 0.00 80 1012.1
20260505151851 59 138 0.0 0.0 0.00 0.00 0.00 82 1012.1
20260505151400 58 255 0.0 0.0 0.00 0.00 0.00 84 1012.1
20260505150847 58 39 0.0 0.0 0.00 0.00 0.00 86 1012.0
20260505150355 57 39 0.0 1.0 0.00 0.00 0.00 86 1011.9
20260505140403 52 149 0.0 0.0 0.00 0.00 0.00 95 1011.9
20260505124854 53 149 0.0 0.0 0.00 0.00 0.00 94 1011.5
20260505124421 53 149 0.0 0.0 0.00 0.00 0.00 94 1011.4
20260505123904 53 149 0.0 0.0 0.00 0.00 0.00 94 1011.4
20260505123351 53 149 0.0 0.0 0.00 0.00 0.00 94 1011.4
20260505122856 53 149 0.0 0.0 0.00 0.00 0.00 94 1011.3
20260505122400 53 149 0.0 0.0 0.00 0.00 0.00 94 1011.3
20260505121849 53 149 0.0 0.0 0.00 0.00 0.00 94 1011.4
20260505121354 53 149 0.0 0.0 0.00 0.00 0.00 94 1011.4
20260505120859 53 161 0.0 0.0 0.00 0.00 0.00 94 1011.4
20260505120347 53 161 0.0 0.0 0.00 0.00 0.00 94 1011.4
20260505115853 54 162 0.0 0.0 0.00 0.00 0.00 94 1011.4
20260505115400 54 161 0.0 0.0 0.00 0.00 0.00 94 1011.4
20260505114847 53 161 0.0 0.0 0.00 0.00 0.00 94 1011.5
20260505114355 53 165 0.0 0.0 0.00 0.00 0.00 94 1011.5
20260505113922 53 165 0.0 0.0 0.00 0.00 0.00 94 1011.5
20260505113350 53 165 0.0 0.0 0.00 0.00 0.00 94 1011.4
20260505112857 54 165 0.0 0.0 0.00 0.00 0.00 94 1011.4
20260505112349 54 165 0.0 0.0 0.00 0.00 0.00 94 1011.5
20260505111855 54 165 0.0 0.0 0.00 0.00 0.00 94 1011.6
20260505110859 54 165 0.0 0.0 0.00 0.00 0.00 94 1011.6
20260505110406 54 165 0.0 0.0 0.00 0.00 0.00 94 1011.6
20260505101910 54 161 0.0 1.0 0.00 0.00 0.00 93 1011.5
20260505101356 54 177 0.0 1.0 0.00 0.00 0.00 93 1011.5
20260505100847 54 186 0.0 1.0 0.00 0.00 0.00 93 1011.6
20260505100354 54 181 0.0 1.0 0.00 0.00 0.00 93 1011.7
20260505095921 54 182 0.0 1.0 0.00 0.00 0.00 92 1011.7
20260505095351 54 212 0.0 2.0 0.00 0.00 0.00 92 1011.7
20260505094900 54 240 0.0 2.0 0.00 0.00 0.00 92 1011.8
20260505094406 54 174 0.0 1.0 0.00 0.00 0.00 92 1011.7
20260505093913 54 215 0.0 2.0 0.00 0.00 0.00 92 1011.8
20260505093359 54 238 0.0 2.0 0.00 0.00 0.00 92 1011.8
20260505092926 55 184 0.0 3.0 0.00 0.00 0.00 91 1011.8
20260505092352 55 218 0.0 3.0 0.00 0.00 0.00 91 1011.9
20260505091900 55 175 0.0 1.0 0.00 0.00 0.00 91 1011.9
20260505091347 55 210 0.0 1.0 0.00 0.00 0.00 91 1012.0
20260505090859 55 245 0.0 1.0 0.00 0.00 0.00 90 1012.2
20260505090348 55 236 0.0 1.0 0.00 0.00 0.00 90 1012.2
20260505085854 55 247 0.0 2.0 0.00 0.00 0.00 89 1012.2
20260505085403 56 240 0.0 2.0 0.00 0.00 0.00 88 1012.3
20260505084852 56 185 0.0 2.0 0.00 0.00 0.00 87 1012.2
20260505084400 56 221 0.0 2.0 0.00 0.00 0.00 86 1012.3
20260505083905 56 200 0.0 1.0 0.00 0.00 0.00 84 1012.3
20260505083351 56 176 0.0 1.0 0.00 0.00 0.00 83 1012.4
20260505082900 56 172 0.0 1.0 0.00 0.00 0.00 82 1012.4
20260505082348 56 241 0.0 0.0 0.00 0.00 0.00 79 1012.4
20260505081854 56 268 0.0 1.0 0.00 0.00 0.00 79 1012.3
20260505081402 56 268 0.0 1.0 0.00 0.00 0.00 79 1012.4
20260505080911 56 268 0.0 1.0 0.00 0.00 0.00 79 1012.4
20260505080415 56 271 0.0 0.0 0.00 0.00 0.00 80 1012.5
20260505075902 56 271 0.0 0.0 0.00 0.00 0.00 80 1012.5
20260505075350 56 271 0.0 0.0 0.00 0.00 0.00 81 1012.5
20260505073921 56 243 0.0 0.0 0.00 0.00 0.00 81 1012.6
20260505073347 56 243 0.0 0.0 0.00 0.00 0.00 82 1012.6
20260505072855 56 243 0.0 0.0 0.00 0.00 0.00 81 1012.7
20260505072423 56 243 0.0 0.0 0.00 0.00 0.00 81 1012.7
20260505071851 56 243 0.0 0.0 0.00 0.00 0.00 81 1012.7
20260505071400 56 243 0.0 0.0 0.00 0.00 0.00 81 1012.7
20260505070905 56 243 0.0 1.0 0.00 0.00 0.00 81 1012.8
20260505070356 56 243 0.0 1.0 0.00 0.00 0.00 81 1012.8
20260505065903 56 243 0.0 0.0 0.00 0.00 0.00 81 1012.7
20260505065350 56 243 0.0 0.0 0.00 0.00 0.00 81 1012.8
20260505064920 56 243 0.0 0.0 0.00 0.00 0.00 81 1012.9
20260505064347 56 243 0.0 0.0 0.00 0.00 0.00 81 1012.9
20260505063915 56 243 0.0 0.0 0.00 0.00 0.00 81 1012.9
20260505063359 56 243 0.0 0.0 0.00 0.00 0.00 81 1012.9
20260505062847 56 243 0.0 0.0 0.00 0.00 0.00 81 1012.9
20260505062356 56 243 0.0 0.0 0.00 0.00 0.00 81 1012.9
20260505061904 56 243 0.0 0.0 0.00 0.00 0.00 81 1013.0
20260505061352 56 243 0.0 1.0 0.00 0.00 0.00 81 1013.0
20260505060918 56 243 0.0 1.0 0.00 0.00 0.00 81 1013.0
20260505060346 57 243 0.0 1.0 0.00 0.00 0.00 81 1013.0
20260505055858 57 243 0.0 0.0 0.00 0.00 0.00 81 1012.9
20260505055406 57 243 0.0 0.0 0.00 0.00 0.00 81 1012.9
20260505054915 57 243 0.0 1.0 0.00 0.00 0.00 81 1013.0
20260505054401 57 243 0.0 1.0 0.00 0.00 0.00 81 1013.0
20260505053848 57 243 0.0 1.0 0.00 0.00 0.00 81 1013.0
20260505053357 57 243 0.0 1.0 0.00 0.00 0.00 81 1013.0
20260505052925 57 257 0.0 1.0 0.00 0.00 0.00 81 1013.0
20260505052353 57 266 0.0 1.0 0.00 0.00 0.00 81 1013.1
20260505051858 57 262 0.0 1.0 0.00 0.00 0.00 81 1013.1
20260505051347 57 172 0.0 1.0 0.00 0.00 0.00 81 1013.2
20260505050854 57 255 0.0 1.0 0.00 0.00 0.00 81 1013.3
20260505050346 57 250 0.0 1.0 0.00 0.00 0.00 81 1013.3
20260505041400 57 266 0.0 1.0 0.00 0.00 0.00 81 1013.4
20260505040904 57 266 0.0 2.0 0.00 0.00 0.00 81 1013.3
20260505040411 58 276 0.0 2.0 0.00 0.00 0.00 81 1013.3
20260505035855 58 274 0.0 1.0 0.00 0.00 0.00 80 1013.2
20260505035424 58 271 0.0 3.0 0.00 0.00 0.00 79 1013.1
20260505034851 58 264 0.0 3.0 0.00 0.00 0.00 77 1013.1
20260505034433 58 267 0.0 2.0 0.00 0.00 0.00 77 1013.1
20260505033904 58 250 0.0 3.0 0.00 0.00 0.00 76 1013.1
20260505033405 58 281 1.0 3.0 0.00 0.00 0.00 75 1013.1
20260505032905 58 281 1.0 3.0 0.00 0.00 0.00 75 1013.0
20260505032355 58 273 1.0 3.0 0.00 0.00 0.00 74 1013.0
20260505031903 58 236 0.0 2.0 0.00 0.00 0.00 73 1013.0
20260505031352 59 249 1.0 2.0 0.00 0.00 0.00 73 1013.0
20260505030859 59 255 0.0 3.0 0.00 0.00 0.00 72 1012.9
20260505030407 59 276 1.0 4.0 0.00 0.00 0.00 72 1012.8
20260505025915 59 228 0.0 4.0 0.00 0.00 0.00 71 1012.9
20260505025421 59 261 1.0 4.0 0.00 0.00 0.00 71 1012.8
20260505024846 59 255 1.0 3.0 0.00 0.00 0.00 70 1012.8
20260505024355 59 266 1.0 4.0 0.00 0.00 0.00 70 1012.7
20260505023901 59 274 1.0 4.0 0.00 0.00 0.00 70 1012.8
20260505023351 59 277 0.0 3.0 0.00 0.00 0.00 70 1012.7
20260505022903 59 265 0.0 2.0 0.00 0.00 0.00 70 1012.6
20260505022353 59 251 0.0 3.0 0.00 0.00 0.00 71 1012.7
20260505021859 60 176 1.0 3.0 0.00 0.00 0.00 70 1012.6
20260505021406 60 285 1.0 3.0 0.00 0.00 0.00 70 1012.6
20260505020855 60 248 0.0 3.0 0.00 0.00 0.00 72 1012.6
20260505020402 60 246 1.0 3.0 0.00 0.00 0.00 72 1012.6
20260505015851 60 285 1.0 3.0 0.00 0.00 0.00 72 1012.5
20260505015359 60 271 1.0 3.0 0.00 0.00 0.00 72 1012.5
20260505014905 60 288 1.0 3.0 0.00 0.00 0.00 71 1012.5
20260505014413 60 278 2.0 3.0 0.00 0.00 0.00 70 1012.5
20260505013900 61 271 2.0 3.0 0.00 0.00 0.00 71 1012.6
20260505013348 61 288 1.0 4.0 0.00 0.00 0.00 70 1012.6
20260505012901 61 265 2.0 5.0 0.00 0.00 0.00 69 1012.6
20260505012348 61 268 1.0 7.0 0.00 0.00 0.00 68 1012.6
20260505011853 61 276 3.0 5.0 0.00 0.00 0.00 67 1012.6
20260505011400 62 271 1.0 5.0 0.00 0.00 0.00 67 1012.6
20260505010847 62 283 1.0 6.0 0.00 0.00 0.00 68 1012.6
20260505010358 62 278 1.0 6.0 0.00 0.00 0.00 68 1012.7
20260505005904 62 276 2.0 5.0 0.00 0.00 0.00 68 1012.7
20260505005353 62 227 2.0 6.0 0.00 0.00 0.00 69 1012.6
20260505004920 62 255 3.0 6.0 0.00 0.00 0.00 68 1012.6
20260505004346 62 181 2.0 5.0 0.00 0.00 0.00 67 1012.7
20260505003850 62 265 3.0 6.0 0.00 0.00 0.00 66 1012.7
20260505003401 63 274 2.0 6.0 0.00 0.00 0.00 66 1012.7
20260505002846 63 245 1.0 5.0 0.00 0.00 0.00 67 1012.6
20260505002351 63 275 3.0 5.0 0.00 0.00 0.00 66 1012.7
20260505001916 63 288 2.0 5.0 0.00 0.00 0.00 65 1012.7
20260505001422 64 278 3.0 5.0 0.00 0.00 0.00 65 1012.6
20260505000908 64 283 1.0 5.0 0.00 0.00 0.00 65 1012.5
20260505000355 63 288 1.0 7.0 0.00 0.00 0.00 64 1012.6
20260504235921 63 278 2.0 7.0 0.00 0.00 0.00 65 1012.5
20260504235408 63 267 2.0 4.0 0.00 0.00 0.00 65 1012.5